Asukamaru — JG5536 — position and weather

sailwx.info

Track history (hours):
 
Tides and Currents Weather Stations Pressure Air Temp Water Temp Dewpoint Dewpoint Depression Visibility Wind Speed Wind Dir Waves Ship Positions

Asukamaru

Last reported at 2014-Oct-26 07:31 UTC. Time now 2014-Oct-26 08:43 UTC.
Position N 35°37' E 139°46'.

Length 31 m; draft 3 m.

Type: Tug. MMSI: 431001145.

Date/timePositionNaut miles runAvg speedWind from/ knotsBaromVisibWave heightAir tempDewpointWater temp
2014-Oct-26 07:31N 35°37' E 139°46'0 0.2
2014-Oct-26 06:13N 35°37' E 139°46'2 1.1
2014-Oct-26 04:10N 35°39' E 139°47'4 6.1
2014-Oct-26 03:30N 35°35' E 139°48'2 1.9
2014-Oct-26 02:24N 35°36' E 139°46'2 0.1
2014-Oct-25 00:23N 35°38' E 139°45'1 1.1
2014-Oct-24 23:32N 35°39' E 139°46'1 0.5
2014-Oct-24 22:33N 35°38' E 139°46'5 5.3
2014-Oct-24 21:33N 35°34' E 139°49'3 3.4
2014-Oct-24 20:33N 35°36' E 139°46'1 0.1
2014-Oct-24 09:31N 35°36' E 139°47'2 1.5
2014-Oct-24 08:29N 35°37' E 139°46'1 0.6
2014-Oct-24 06:13N 35°38' E 139°45'4 3.6
2014-Oct-24 05:14N 35°35' E 139°48'4 0.7
2014-Oct-24 00:24N 35°38' E 139°45'0 0.5
2014-Oct-23 23:33N 35°38' E 139°46'3 2.7
2014-Oct-23 22:30N 35°36' E 139°47'0 0.0
2014-Oct-23 21:14N 35°36' E 139°47'2 3.4
2014-Oct-23 20:33N 35°38' E 139°46'0 0.0
2014-Oct-22 16:33N 35°38' E 139°46'0 0.5
2014-Oct-22 15:33N 35°37' E 139°46'0 0.0
2014-Oct-22 14:33N 35°37' E 139°46'3 2.7
2014-Oct-22 13:33N 35°35' E 139°48'2 1.6
2014-Oct-22 12:04N 35°37' E 139°46'4 2.9
2014-Oct-22 10:33N 35°34' E 139°49'5 5.1
2014-Oct-22 09:33N 35°38' E 139°46'0 0.0
2014-Oct-21 23:08N 35°38' E 139°46'2 3.7
2014-Oct-21 22:28N 35°35' E 139°47'3 2.8
2014-Oct-21 21:33N 35°34' E 139°49'3 2.4
2014-Oct-21 20:09N 35°36' E 139°46'2 0.2
2014-Oct-21 04:17N 35°38' E 139°46'0 0.3
2014-Oct-21 03:31N 35°38' E 139°46'  
2014-Oct-17 19:32N 35°38' E 139°45'1 1.4
2014-Oct-17 18:32N 35°37' E 139°46'0 0.2
2014-Oct-17 17:33N 35°37' E 139°46'1 0.6
2014-Oct-17 15:20N 35°36' E 139°48'2 2.5
2014-Oct-17 14:32N 35°38' E 139°46'3 2.7
2014-Oct-17 13:32N 35°35' E 139°48'1 1.4
2014-Oct-17 12:33N 35°34' E 139°48'4 0.3
2014-Oct-16 23:20N 35°38' E 139°46'4 5.1
2014-Oct-16 22:29N 35°34' E 139°49'2 2.1
2014-Oct-16 21:33N 35°35' E 139°47'2 1.9
2014-Oct-16 20:33N 35°37' E 139°46'0 0.0
2014-Oct-16 09:33N 35°37' E 139°46'0 0.4
2014-Oct-16 08:33N 35°37' E 139°46'  
Track history (hours):
 
Tides and Currents Weather Stations Pressure Air Temp Water Temp Dewpoint Dewpoint Depression Visibility Wind Speed Wind Dir Waves Ship Positions

Asukamaru

Last reported at 2014-Oct-26 07:31 UTC. Time now 2014-Oct-26 08:43 UTC.
Position N 35°37' E 139°46'.

Length 31 m; draft 3 m.

Type: Tug. MMSI: 431001145.

Date/timePositionNaut miles runAvg speedWind from/ knotsBaromVisibWave heightAir tempDewpointWater temp
2014-Oct-26 07:31N 35°37' E 139°46'0 0.2
2014-Oct-26 06:13N 35°37' E 139°46'2 1.1
2014-Oct-26 04:10N 35°39' E 139°47'4 6.1
2014-Oct-26 03:30N 35°35' E 139°48'2 1.9
2014-Oct-26 02:24N 35°36' E 139°46'2 0.1
2014-Oct-25 00:23N 35°38' E 139°45'1 1.1
2014-Oct-24 23:32N 35°39' E 139°46'1 0.5
2014-Oct-24 22:33N 35°38' E 139°46'5 5.3
2014-Oct-24 21:33N 35°34' E 139°49'3 3.4
2014-Oct-24 20:33N 35°36' E 139°46'1 0.1
2014-Oct-24 09:31N 35°36' E 139°47'2 1.5
2014-Oct-24 08:29N 35°37' E 139°46'1 0.6
2014-Oct-24 06:13N 35°38' E 139°45'4 3.6
2014-Oct-24 05:14N 35°35' E 139°48'4 0.7
2014-Oct-24 00:24N 35°38' E 139°45'0 0.5
2014-Oct-23 23:33N 35°38' E 139°46'3 2.7
2014-Oct-23 22:30N 35°36' E 139°47'0 0.0
2014-Oct-23 21:14N 35°36' E 139°47'2 3.4
2014-Oct-23 20:33N 35°38' E 139°46'0 0.0
2014-Oct-22 16:33N 35°38' E 139°46'0 0.5
2014-Oct-22 15:33N 35°37' E 139°46'0 0.0
2014-Oct-22 14:33N 35°37' E 139°46'3 2.7
2014-Oct-22 13:33N 35°35' E 139°48'2 1.6
2014-Oct-22 12:04N 35°37' E 139°46'4 2.9
2014-Oct-22 10:33N 35°34' E 139°49'5 5.1
2014-Oct-22 09:33N 35°38' E 139°46'0 0.0
2014-Oct-21 23:08N 35°38' E 139°46'2 3.7
2014-Oct-21 22:28N 35°35' E 139°47'3 2.8
2014-Oct-21 21:33N 35°34' E 139°49'3 2.4
2014-Oct-21 20:09N 35°36' E 139°46'2 0.2
2014-Oct-21 04:17N 35°38' E 139°46'0 0.3
2014-Oct-21 03:31N 35°38' E 139°46'  
2014-Oct-17 19:32N 35°38' E 139°45'1 1.4
2014-Oct-17 18:32N 35°37' E 139°46'0 0.2
2014-Oct-17 17:33N 35°37' E 139°46'1 0.6
2014-Oct-17 15:20N 35°36' E 139°48'2 2.5
2014-Oct-17 14:32N 35°38' E 139°46'3 2.7
2014-Oct-17 13:32N 35°35' E 139°48'1 1.4
2014-Oct-17 12:33N 35°34' E 139°48'4 0.3
2014-Oct-16 23:20N 35°38' E 139°46'4 5.1
2014-Oct-16 22:29N 35°34' E 139°49'2 2.1
2014-Oct-16 21:33N 35°35' E 139°47'2 1.9
2014-Oct-16 20:33N 35°37' E 139°46'0 0.0
2014-Oct-16 09:33N 35°37' E 139°46'0 0.4
2014-Oct-16 08:33N 35°37' E 139°46'  

Dump ship's entire track history